Wallops Island, VA

6:26 PM EDT on March 22, 2017 (GMT -0400)
Wallops Flight Facility

Weather History for KWAL - February, 2014

Change the Weather History Date:

Thursday, February 20, 2014

  Actual Average Record
Temperature  
Mean Temperature 48 °F 40 °F  
Max Temperature 60 °F 48 °F 69 °F (1991)
Min Temperature 35 °F 31 °F -1 °F (2015)
Degree Days  
Heating Degree Days 17    
Month to date heating degree days 528  
Since 1 July heating degree days 2785  
Cooling Degree Days 0    
Month to date cooling degree days 0  
Year to date cooling degree days 0  
Moisture  
Dew Point 38 °F    
Average Humidity 66    
Maximum Humidity 93    
Minimum Humidity 38    
Precipitation  
Precipitation 0.00 in 0.11 in 0.14 in (2012)
Month to date precipitation 2.52 1.92  
Year to date precipitation 5.48 4.96  
Sea Level Pressure  
Sea Level Pressure 30.14 in    
Wind  
Wind Speed 8 mph (SE)    
Max Wind Speed 21 mph    
Max Gust Speed 32 mph    
Visibility 8 miles    
Events Fog , Rain    
T = Trace of Precipitation, MM = Missing Value Source: NWS Daily Summary

Daily Weather History Graph

Daily Weather History Graph

Search for Another Location

Airport or City:

Trip Planner

Search our weather history database for the weather conditions in past years. The results will help you decide how hot, cold, wet, or windy it might be!

Date:

Astronomy

Feb. 20, 2014 Rise Set
Actual Time 6:45 AM EST 5:46 PM EST
Civil Twilight 6:18 AM EST 6:12 PM EST
Nautical Twilight 5:48 AM EST 6:43 PM EST
Astronomical Twilight 5:17 AM EST 7:13 PM EST
Moon 11:31 PM EST (2/20) 9:32 AM EST (2/20)
Length of Visible Light 11h 53m
Length of Day
11h 00m
Waning Gibbous, 71% of the Moon is Illuminated
Feb 20
Waning Gibbous
Feb 22
Last Quarter
Mar 1
New
Mar 8
First Quarter
Mar 16
Full

Hourly Weather History & Observations

Time (EST) Temp. Windchill Dew Point Humidity Pressure Visibility Wind Dir Wind Speed Gust Speed Precip Events Conditions
12:54 AM 52.0 °F - 28.9 °F 41% 30.16 in 10.0 mi North 11.5 mph - N/A   Clear
1:54 AM 50.0 °F - 28.9 °F 44% 30.17 in 10.0 mi North 12.7 mph 20.7 mph N/A   Clear
2:54 AM 48.9 °F - 28.9 °F 46% 30.19 in 10.0 mi North 6.9 mph - N/A   Clear
3:54 AM 45.0 °F 43.5 °F 28.9 °F 53% 30.19 in 10.0 mi NNE 3.5 mph - N/A   Clear
4:54 AM 43.0 °F - 28.0 °F 56% 30.19 in 10.0 mi Calm Calm - N/A   Clear
5:54 AM 39.9 °F 37.8 °F 28.9 °F 65% 30.22 in 10.0 mi NNW 3.5 mph - N/A   Clear
6:54 AM 36.0 °F - 28.0 °F 73% 30.26 in 10.0 mi Calm Calm - N/A   Clear
7:54 AM 43.0 °F - 30.9 °F 62% 30.27 in 10.0 mi Calm Calm - N/A   Clear
8:54 AM 48.0 °F - 27.0 °F 44% 30.28 in 10.0 mi ENE 10.4 mph - 0.00 in Rain Light Rain
9:54 AM 50.0 °F - 28.0 °F 43% 30.28 in 10.0 mi East 10.4 mph - 0.00 in   Clear
10:54 AM 51.1 °F - 28.0 °F 41% 30.27 in 10.0 mi ESE 11.5 mph - N/A   Clear
11:54 AM 50.0 °F - 26.1 °F 39% 30.25 in 10.0 mi SE 10.4 mph - N/A   Mostly Cloudy
12:54 PM 50.0 °F - 30.9 °F 48% 30.21 in 10.0 mi ESE 5.8 mph - N/A   Overcast
1:54 PM 48.0 °F - 34.0 °F 58% 30.17 in 10.0 mi East 9.2 mph - N/A   Overcast
2:54 PM 48.9 °F - 37.9 °F 66% 30.15 in 10.0 mi East 6.9 mph - N/A   Overcast
3:54 PM 48.9 °F - 39.0 °F 69% 30.14 in 10.0 mi East 8.1 mph - N/A   Overcast
4:25 PM 48.0 °F - 39.0 °F 71% 30.13 in 10.0 mi East 10.4 mph - N/A   Overcast
4:54 PM 46.9 °F - 39.9 °F 77% 30.12 in 10.0 mi East 8.1 mph - N/A   Overcast
5:54 PM 46.9 °F - 41.0 °F 80% 30.09 in 10.0 mi East 8.1 mph - N/A   Overcast
6:31 PM 46.9 °F - 41.0 °F 80% 30.09 in 10.0 mi East 5.8 mph - N/A   Overcast
6:54 PM 48.0 °F - 42.1 °F 80% 30.08 in 10.0 mi ESE 3.5 mph - N/A   Overcast
7:14 PM 48.9 °F - 43.0 °F 80% 30.07 in 10.0 mi SSE 3.5 mph - N/A   Overcast
7:25 PM 51.1 °F - 46.0 °F 83% 30.07 in 10.0 mi South 8.1 mph - N/A   Overcast
7:58 PM 50.0 °F - 48.9 °F 96% 30.06 in 0.8 mi SSW 5.8 mph - N/A   Overcast
8:07 PM 50.0 °F - 48.9 °F 96% 30.05 in 0.5 mi SW 4.6 mph - N/A Fog Fog
8:18 PM 50.0 °F - 48.0 °F 93% 30.05 in 0.8 mi SSW 6.9 mph - N/A   Mist
8:23 PM 50.0 °F - 48.0 °F 93% 30.05 in 1.2 mi SSW 9.2 mph - N/A   Overcast
8:28 PM 50.0 °F - 48.0 °F 93% 30.05 in 2.5 mi SSW 9.2 mph - N/A   Overcast
8:36 PM 50.0 °F - 48.0 °F 93% 30.04 in 6.0 mi SW 9.2 mph - N/A   Mostly Cloudy
8:49 PM 50.0 °F - 48.2 °F 94% 30.04 in 8.0 mi SSW 9.2 mph - N/A   Scattered Clouds
8:54 PM 50.0 °F - 48.9 °F 96% 30.03 in 8.0 mi SSW 10.4 mph - N/A   Partly Cloudy
9:54 PM 53.1 °F - 51.1 °F 93% 30.01 in 10.0 mi SW 15.0 mph - N/A   Clear
10:54 PM 57.9 °F - 54.0 °F 87% 30.00 in 10.0 mi SW 15.0 mph - N/A   Clear
11:54 PM 55.0 °F - 53.1 °F 93% 29.99 in 5.0 mi SSW 13.8 mph - N/A   Partly Cloudy